DW5656 Weather Reports


time (UTC)temp
C
wind
direction
speed
KPH
gust
KPH
rain 1hr
cm
rain 24hr
cm
rain mn
cm
humidity
%
barometer
mb
20260507044158 15 90 0.0 3.2 0.00 0.00 0.00 77 1009.2
20260507043237 15 158 1.6 6.4 0.00 0.00 0.00 77 1009.2
20260507042337 15 188 1.6 9.7 0.00 0.00 0.00 77 1009.2
20260507041437 15 188 1.6 9.7 0.00 0.00 0.00 76 1009.1
20260507040558 15 205 1.6 6.4 0.00 0.00 0.00 76 1009.1
20260507035637 15 189 1.6 6.4 0.00 0.00 0.00 76 1009.0
20260507034737 15 207 1.6 9.7 0.00 0.00 0.00 76 1008.9
20260507033838 15 218 1.6 9.7 0.00 0.00 0.00 76 1009.0
20260507032937 15 250 1.6 8.0 0.00 0.00 0.00 76 1009.0
20260507032037 15 239 1.6 6.4 0.00 0.00 0.00 75 1009.1
20260507031136 16 230 1.6 8.0 0.00 0.00 0.00 75 1009.1
20260507030237 16 212 0.0 4.8 0.00 0.00 0.00 75 1009.0
20260507025336 16 235 1.6 6.4 0.00 0.00 0.00 75 1008.9
20260507024436 15 217 3.2 8.0 0.00 0.00 0.00 75 1008.9
20260507023536 15 204 3.2 9.7 0.00 0.00 0.00 76 1008.9
20260507022657 15 200 3.2 9.7 0.00 0.00 0.00 75 1008.7
20260507021736 15 200 4.8 9.7 0.00 0.00 0.00 75 1008.7
20260507020837 16 212 4.8 14.5 0.00 0.00 0.00 75 1008.8
20260507015957 16 212 4.8 11.3 0.00 0.00 0.00 75 1008.8
20260507015036 16 208 4.8 14.5 0.00 0.00 0.00 74 1008.9
20260507014136 16 200 3.2 11.3 0.00 0.00 0.00 74 1008.9
20260507013257 16 204 3.2 16.1 0.00 0.00 0.00 74 1009.0
20260507012336 16 209 4.8 16.1 0.00 0.00 0.00 74 1009.0
20260507011436 16 209 4.8 16.1 0.00 0.00 0.00 73 1009.1
20260507010557 16 207 0.0 14.5 0.00 0.00 0.00 73 1009.3
20260507005636 16 191 3.2 6.4 0.00 0.00 0.00 73 1009.4
20260507004736 16 200 3.2 12.9 0.00 0.00 0.00 73 1009.5
20260507003836 16 205 4.8 9.7 0.00 0.00 0.00 72 1009.5
20260507002936 16 206 3.2 11.3 0.00 0.00 0.00 72 1009.4
20260507002036 16 200 4.8 9.7 0.00 0.00 0.00 72 1009.5
20260507001136 16 207 4.8 14.5 0.00 0.00 0.00 72 1009.5
20260507000236 16 200 4.8 12.9 0.00 0.00 0.00 72 1009.6
20260506235336 16 215 4.8 11.3 0.00 0.00 0.00 72 1009.7
20260506234457 16 219 4.8 14.5 0.00 0.00 0.00 72 1009.7
20260506233536 16 224 4.8 11.3 0.00 0.00 0.00 72 1009.7
20260506232636 16 228 4.8 12.9 0.00 0.00 0.00 72 1009.7
20260506231757 16 231 3.2 11.3 0.00 0.00 0.00 72 1009.8
20260506230857 16 237 3.2 14.5 0.00 0.00 0.00 72 1009.8
20260506225936 17 242 3.2 8.0 0.00 0.00 0.00 71 1009.9
20260506225036 17 243 4.8 11.3 0.00 0.00 0.00 70 1009.8
20260506224157 17 236 6.4 12.9 0.00 0.00 0.00 69 1009.8
20260506223236 17 224 6.4 14.5 0.00 0.00 0.00 68 1010.0
20260506222357 17 221 4.8 11.3 0.00 0.00 0.00 65 1009.9
20260506221436 17 219 4.8 9.7 0.00 0.00 0.00 64 1009.8
20260506220536 17 220 4.8 12.9 0.00 0.00 0.00 62 1009.7
20260506215635 17 226 4.8 11.3 0.00 0.00 0.00 61 1009.7
20260506214757 17 228 6.4 11.3 0.00 0.00 0.00 60 1009.7
20260506213835 18 218 4.8 11.3 0.00 0.00 0.00 60 1009.7
20260506212936 18 230 4.8 9.7 0.00 0.00 0.00 58 1009.6
20260506212035 18 234 8.0 12.9 0.00 0.00 0.00 57 1009.4
20260506211135 18 247 9.7 17.7 0.00 0.00 0.00 56 1009.3
20260506210236 18 245 8.0 17.7 0.00 0.00 0.00 55 1009.3
20260506205336 18 261 6.4 20.9 0.00 0.00 0.00 55 1009.1
20260506204456 19 269 4.8 17.7 0.00 0.00 0.00 54 1009.0
20260506203535 19 265 6.4 12.9 0.00 0.00 0.00 54 1008.9
20260506202656 19 258 6.4 14.5 0.00 0.00 0.00 54 1008.8
20260506201735 20 246 6.4 12.9 0.00 0.00 0.00 53 1008.9
20260506200835 20 240 6.4 11.3 0.00 0.00 0.00 53 1008.9
20260506195935 20 253 9.7 19.3 0.00 0.00 0.00 51 1008.8
20260506195056 20 275 11.3 22.5 0.00 0.00 0.00 51 1008.7
20260506194135 20 266 8.0 20.9 0.00 0.00 0.00 50 1008.5
20260506193235 21 267 8.0 16.1 0.00 0.00 0.00 49 1008.5
20260506192335 21 262 9.7 19.3 0.00 0.00 0.00 50 1008.3
20260506191435 21 266 9.7 19.3 0.00 0.00 0.00 49 1008.3
20260506190556 21 252 9.7 19.3 0.00 0.00 0.00 48 1008.2
20260506185656 22 254 9.7 20.9 0.00 0.00 0.00 47 1008.1
20260506184735 22 257 9.7 22.5 0.00 0.00 0.00 47 1008.0
20260506183835 22 254 9.7 24.1 0.00 0.00 0.00 46 1008.1
20260506182935 22 272 11.3 22.5 0.00 0.00 0.00 46 1008.1
20260506182035 22 261 11.3 24.1 0.00 0.00 0.00 45 1008.1
20260506181135 23 244 11.3 22.5 0.00 0.00 0.00 43 1007.9
20260506180256 23 247 11.3 19.3 0.00 0.00 0.00 42 1007.9
20260506175356 23 243 9.7 24.1 0.00 0.00 0.00 41 1008.0
20260506174456 23 239 9.7 19.3 0.00 0.00 0.00 41 1008.0
20260506173535 23 240 12.9 25.7 0.00 0.00 0.00 41 1008.1
20260506172656 23 244 14.5 25.7 0.00 0.00 0.00 41 1008.0
20260506171735 23 243 11.3 25.7 0.00 0.00 0.00 41 1008.2
20260506170835 24 228 9.7 24.1 0.00 0.00 0.00 40 1008.2
20260506165935 24 221 11.3 24.1 0.00 0.00 0.00 40 1008.1
20260506165035 24 231 9.7 25.7 0.00 0.00 0.00 40 1008.1
20260506164135 25 228 8.0 17.7 0.00 0.00 0.00 39 1008.2
20260506163235 25 211 6.4 20.9 0.00 0.00 0.00 38 1008.2
20260506162335 25 208 4.8 16.1 0.00 0.00 0.00 36 1008.2
20260506161435 25 190 3.2 12.9 0.00 0.00 0.00 34 1008.3
20260506160557 25 155 4.8 14.5 0.00 0.00 0.00 35 1008.3
20260506155656 25 162 4.8 14.5 0.00 0.00 0.00 34 1008.3
20260506154735 25 179 3.2 12.9 0.00 0.00 0.00 34 1008.4
20260506153834 25 269 4.8 9.7 0.00 0.00 0.00 35 1008.4
20260506152935 25 254 4.8 11.3 0.00 0.00 0.00 36 1008.6
20260506152034 25 233 4.8 17.7 0.00 0.00 0.00 36 1008.7
20260506151135 25 186 4.8 14.5 0.00 0.00 0.00 35 1008.8
20260506150234 25 219 4.8 14.5 0.00 0.00 0.00 36 1008.9
20260506145334 24 236 3.2 16.1 0.00 0.00 0.00 36 1009.2
20260506144434 24 96 4.8 12.9 0.00 0.00 0.00 36 1009.4
20260506143555 23 106 4.8 11.3 0.00 0.00 0.00 36 1009.5
20260506142634 24 84 3.2 12.9 0.00 0.00 0.00 35 1009.7
20260506141734 23 52 3.2 8.0 0.00 0.00 0.00 36 1009.8
20260506140855 23 231 6.4 14.5 0.00 0.00 0.00 36 1009.9
20260506135934 24 217 4.8 12.9 0.00 0.00 0.00 36 1010.0
20260506135055 23 150 3.2 14.5 0.00 0.00 0.00 36 1010.0
20260506134134 23 258 6.4 17.7 0.00 0.00 0.00 37 1010.1
20260506133234 23 250 4.8 14.5 0.00 0.00 0.00 37 1010.2
20260506132334 23 226 4.8 19.3 0.00 0.00 0.00 36 1010.3
20260506131455 23 324 3.2 9.7 0.00 0.00 0.00 37 1010.4
20260506130535 23 28 1.6 16.1 0.00 0.00 0.00 36 1010.5
20260506125634 23 60 3.2 4.8 0.00 0.00 0.00 37 1010.5
20260506124755 22 101 3.2 12.9 0.00 0.00 0.00 37 1010.6
20260506123834 22 319 4.8 12.9 0.00 0.00 0.00 38 1010.7
20260506122934 22 331 6.4 12.9 0.00 0.00 0.00 38 1010.8
20260506122034 22 332 4.8 17.7 0.00 0.00 0.00 38 1010.9
20260506121134 22 41 4.8 11.3 0.00 0.00 0.00 38 1010.9
20260506120234 22 354 3.2 14.5 0.00 0.00 0.00 39 1011.1
20260506115355 23 283 3.2 9.7 0.00 0.00 0.00 40 1011.3
20260506114434 22 267 3.2 6.4 0.00 0.00 0.00 42 1011.2
20260506113534 22 272 3.2 9.7 0.00 0.00 0.00 41 1011.3
20260506112634 22 259 1.6 9.7 0.00 0.00 0.00 42 1011.1
20260506111734 22 286 1.6 6.4 0.00 0.00 0.00 44 1011.3
20260506110834 22 354 1.6 8.0 0.00 0.00 0.00 43 1011.4
20260506105955 22 357 1.6 8.0 0.00 0.00 0.00 44 1011.4
20260506105034 21 34 1.6 8.0 0.00 0.00 0.00 45 1011.5
20260506104155 21 319 3.2 6.4 0.00 0.00 0.00 46 1011.6
20260506103255 21 12 3.2 9.7 0.00 0.00 0.00 47 1011.6
20260506102335 21 77 1.6 11.3 0.00 0.00 0.00 48 1011.6
20260506101434 20 152 1.6 6.4 0.00 0.00 0.00 49 1011.7
20260506100533 20 122 1.6 6.4 0.00 0.00 0.00 51 1011.8
20260506095633 20 63 3.2 9.7 0.00 0.00 0.00 52 1011.9
20260506094733 20 109 1.6 8.0 0.00 0.00 0.00 52 1011.9
20260506093834 20 142 1.6 8.0 0.00 0.00 0.00 53 1011.9
20260506092934 19 158 1.6 8.0 0.00 0.00 0.00 54 1011.9
20260506092034 19 102 1.6 9.7 0.00 0.00 0.00 53 1011.9
20260506091133 18 114 1.6 9.7 0.00 0.00 0.00 55 1011.8
20260506090255 18 114 1.6 4.8 0.00 0.00 0.00 55 1011.9
20260506085333 18 79 3.2 6.4 0.00 0.00 0.00 58 1012.0
20260506084433 17 65 3.2 9.7 0.00 0.00 0.00 59 1012.0
20260506083555 17 74 3.2 9.7 0.00 0.00 0.00 58 1012.0
20260506082633 17 30 3.2 8.0 0.00 0.00 0.00 59 1012.0
20260506081733 17 346 3.2 6.4 0.00 0.00 0.00 59 1012.0
20260506080833 17 347 3.2 6.4 0.00 0.00 0.00 61 1012.0
20260506073233 16 356 3.2 8.0 0.00 0.00 0.00 63 1012.2
20260506072333 16 21 6.4 11.3 0.00 0.00 0.00 64 1012.2
20260506071433 15 6 6.4 14.5 0.00 0.00 0.00 65 1012.2
20260506070533 15 26 4.8 12.9 0.00 0.00 0.00 66 1012.1
20260506062033 15 3 3.2 8.0 0.00 0.00 0.00 65 1012.0
20260506061154 15 21 3.2 9.7 0.00 0.00 0.00 66 1011.9
20260506060233 15 358 3.2 8.0 0.00 0.00 0.00 66 1011.9
20260506050833 15 339 3.2 6.4 0.00 0.00 0.00 64 1011.7
20260506045033 16 6 1.6 8.0 0.00 0.00 0.00 63 1011.5